Location: Vihti�l�
(61.3833°N, 23.0667°E)
Time: 04:35:08
(UTC+00:00)

Cosmos 1707 Rocket - Pass Details

Date: 29 November 2020
Orbit: 605 x 631 km, 82.5° (Epoch: 22 January)

Event Time Altitude Azimuth Distance (km) Brightness Sun altitude
Exits shadow 04:21:32 12° 347° (NNW) 1,857 5.8 -18.2°
Maximum altitude 04:25:37 82° 73° (ENE) 625 3.6 -17.7°
Drops below altitude 10° 04:29:58 10° 163° (SSE) 1,959 6.5 -17.2°
Sets 04:32:10 0° 164° (SSE) 2,858 7.4 -16.9°
